AA3CS-1 Chesapeake Beach MD US current weather conditions

sailwx.info

Wind from 022 at 1 knots gusting 3

Air temperature 3.9° C
Dewpoint -4.3° C

Last reported at 2019-Dec-07 14:00 UTC.
Time now 2019-Dec-07 14:21 UTC

Location: N 38°37' W 076°31'.
View on Google Maps.

See reports from other nearby stations

  
Tides and Currents Weather Stations Pressure Air Temp Water Temp Dewpoint Dewpoint Depression Visibility Wind Speed Wind Dir Waves Ship Positions
date/time (UTC)wind fromknots sea level pressurealtimeterstation pressurevisibilityair tempwater tempwave heightnotes
2019-Dec-07 14:00 022 1 gusting 3 3.9
2019-Dec-07 13:50 3.3
2019-Dec-07 13:40 3.3
2019-Dec-07 13:30 292 0 gusting 2 2.8
2019-Dec-07 13:20 2.2
2019-Dec-07 13:10 1.7
2019-Dec-07 13:00 1.7
2019-Dec-07 12:50 315 0 gusting 2 1.1
2019-Dec-07 12:40 315 0 gusting 2 1.1
2019-Dec-07 12:30 315 0 gusting 1 1.1
2019-Dec-07 12:20 315 0 gusting 1 1.7
2019-Dec-07 12:10 315 0 gusting 1 1.7
2019-Dec-07 12:00 315 1 gusting 2 1.7
2019-Dec-07 11:50 315 0 gusting 2 1.7
2019-Dec-07 11:40 315 0 gusting 2 2.2
2019-Dec-07 11:30 315 0 gusting 1 2.2
2019-Dec-07 11:20 315 0 gusting 2 2.2
2019-Dec-07 11:10 315 0 gusting 1 2.8
2019-Dec-07 11:00 315 0 gusting 1 2.8
2019-Dec-07 10:50 315 0 gusting 1 2.8
2019-Dec-07 10:40 315 0 gusting 2 3.3
2019-Dec-07 10:30 315 0 gusting 2 3.3
2019-Dec-07 10:20 292 1 gusting 3 3.3
2019-Dec-07 10:10 337 0 gusting 3 3.3
2019-Dec-07 10:00 022 0 gusting 2 3.9
2019-Dec-07 09:50 315 1 gusting 3 3.9
2019-Dec-07 09:40 337 1 gusting 5 3.9
2019-Dec-07 09:30 3.9
2019-Dec-07 09:20 337 1 gusting 3 3.9
2019-Dec-07 09:10 315 1 gusting 4 4.4
2019-Dec-07 09:00 337 1 gusting 4 4.4
2019-Dec-07 08:50 4.4
2019-Dec-07 08:40 315 1 gusting 2 5.0
2019-Dec-07 08:30 315 1 gusting 3 5.0
2019-Dec-07 08:20 315 2 gusting 6 5.6
2019-Dec-07 08:10 5.6
2019-Dec-07 08:00 6.1
2019-Dec-07 07:50 337 2 gusting 6 6.1
2019-Dec-07 07:40 6.7
2019-Dec-07 07:30 315 2 gusting 7 6.7
2019-Dec-07 07:20 292 1 gusting 3 7.2
2019-Dec-07 07:10 292 2 gusting 6 7.2
2019-Dec-07 07:00 7.2
2019-Dec-07 06:50 7.2
2019-Dec-07 06:40 337 1 gusting 3 7.8
2019-Dec-07 06:30 337 2 gusting 6 7.8
2019-Dec-07 06:20 315 2 gusting 6 7.8
2019-Dec-07 06:10 8.3
2019-Dec-07 06:00 337 2 gusting 6 8.3
2019-Dec-07 05:50 8.3
2019-Dec-07 05:40 8.9
2019-Dec-07 05:30 8.9
2019-Dec-07 05:20 9.4
2019-Dec-07 05:10 337 2 gusting 6 10.0
2019-Dec-07 05:00 315 1 gusting 6 10.0
2019-Dec-07 04:50 225 0 gusting 2 10.0
2019-Dec-07 04:40 315 0 gusting 1 10.0
2019-Dec-07 04:30 315 1 gusting 3 10.0
2019-Dec-07 04:20 315 1 gusting 3 10.0
2019-Dec-07 04:10 315 0 gusting 2 9.4
2019-Dec-07 04:00 315 0 gusting 1 9.4
2019-Dec-07 03:50 292 1 gusting 3 9.4
2019-Dec-07 03:40 247 0 gusting 1 9.4
2019-Dec-07 03:30 10.0
2019-Dec-07 03:20 10.0
2019-Dec-07 03:10 10.0
2019-Dec-07 03:00 270 0 gusting 1 10.0
2019-Dec-07 02:50 270 0 gusting 1 10.0
2019-Dec-07 02:40 270 0 gusting 1 10.0
2019-Dec-07 02:30 10.0
2019-Dec-07 02:20 10.0
2019-Dec-07 02:10 10.0
2019-Dec-07 02:00 270 0 gusting 1 10.0
2019-Dec-07 01:50 270 0 gusting 1 10.0
2019-Dec-07 01:40 270 0 gusting 1 10.0
2019-Dec-07 01:30 270 0 gusting 1 10.0
2019-Dec-07 01:20 270 0 gusting 1 10.0
2019-Dec-07 01:10 10.0
2019-Dec-07 01:00 270 0 gusting 1 10.0
2019-Dec-07 00:50 270 0 gusting 2 10.0
2019-Dec-07 00:40 270 0 gusting 1 10.0
2019-Dec-07 00:30 270 0 gusting 1 10.0
2019-Dec-07 00:20 10.0
2019-Dec-07 00:10 270 0 gusting 1 10.0
2019-Dec-07 00:00 270 0 gusting 1 10.6
2019-Dec-06 23:50 270 0 gusting 1 10.6
2019-Dec-06 23:40 202 0 gusting 2 10.6
2019-Dec-06 23:30 10.6
2019-Dec-06 23:20 11.1
2019-Dec-06 23:10 11.1
2019-Dec-06 23:00 202 0 gusting 3 11.1
2019-Dec-06 22:50 11.1
2019-Dec-06 22:40 11.1
2019-Dec-06 22:30 11.1
2019-Dec-06 22:20 202 0 gusting 1 11.1
2019-Dec-06 22:10 11.1
2019-Dec-06 22:00 180 0 gusting 3 11.7
2019-Dec-06 21:50 225 0 gusting 1 11.7
2019-Dec-06 21:40 225 0 gusting 2 11.7
2019-Dec-06 21:30 247 0 gusting 3 12.2
2019-Dec-06 21:20 202 0 gusting 1 11.7
2019-Dec-06 21:10 247 1 gusting 6 12.2
2019-Dec-06 21:00 112 0 gusting 3 12.2
2019-Dec-06 20:50 202 0 gusting 4 12.2
2019-Dec-06 20:40 157 0 gusting 2 12.2
2019-Dec-06 20:30 157 0 gusting 3 12.2
2019-Dec-06 20:20 157 0 gusting 3 12.2
2019-Dec-06 20:10 270 1 gusting 5 12.2
2019-Dec-06 20:00 157 0 gusting 3 12.2
2019-Dec-06 19:50 225 0 gusting 2 12.2
2019-Dec-06 19:40 337 0 gusting 1 12.2
2019-Dec-06 19:30 202 0 gusting 1 12.2
2019-Dec-06 19:20 112 0 gusting 2 12.2
2019-Dec-06 19:10 180 1 gusting 5 12.2
2019-Dec-06 19:00 180 2 gusting 6 12.2
2019-Dec-06 18:50 270 1 gusting 9 12.2
2019-Dec-06 18:40 202 0 gusting 3 12.2
2019-Dec-06 18:30 180 1 gusting 6 11.7
2019-Dec-06 18:20 180 1 gusting 5 12.2
2019-Dec-06 18:10 270 0 gusting 3 12.2
2019-Dec-06 18:00 337 0 gusting 3 12.2
2019-Dec-06 17:50 112 0 gusting 2 12.2
2019-Dec-06 17:40 225 1 gusting 5 12.2
2019-Dec-06 17:30 202 0 gusting 3 11.7
2019-Dec-06 17:20 022 0 gusting 2 11.7
2019-Dec-06 17:10 270 0 gusting 4 11.7
2019-Dec-06 17:00 180 1 gusting 6 11.7
2019-Dec-06 16:50 315 1 gusting 3 11.7
2019-Dec-06 16:40 157 1 gusting 5 11.7
2019-Dec-06 16:30 157 1 gusting 6 11.7
2019-Dec-06 16:20 315 2 gusting 6 11.1
2019-Dec-06 16:10 202 1 gusting 8 11.1
2019-Dec-06 16:00 202 2 gusting 6 10.6
2019-Dec-06 15:50 180 1 gusting 3 10.0
2019-Dec-06 15:40 157 0 gusting 4 10.0
2019-Dec-06 15:30 247 0 gusting 2 9.4
2019-Dec-06 15:20 225 1 gusting 5 9.4
2019-Dec-06 15:10 8.9
2019-Dec-06 15:00 135 0 gusting 3 8.9
2019-Dec-06 14:50 270 0 gusting 2 8.3
2019-Dec-06 14:40 337 0 gusting 3 7.8
2019-Dec-06 14:30 090 0 gusting 2 7.8
2019-Dec-06 14:20 135 0 gusting 2 7.2
2019-Dec-06 14:10 157 1 gusting 3 7.2
2019-Dec-06 14:00 157 0 gusting 4 6.7
2019-Dec-06 13:50 6.1
2019-Dec-06 13:40 5.6
2019-Dec-06 13:30 4.4
2019-Dec-06 13:20 292 0 gusting 2 3.9
2019-Dec-06 13:10 270 0 gusting 2 3.3
2019-Dec-06 13:00 270 0 gusting 1 2.8
2019-Dec-06 12:50 292 0 gusting 2 2.8
2019-Dec-06 12:40 292 0 gusting 2 2.2
2019-Dec-06 12:30 247 0 gusting 1 2.2
2019-Dec-06 12:20 225 0 gusting 2 1.7
2019-Dec-06 12:10 270 0 gusting 2 1.7
2019-Dec-06 12:00 270 0 gusting 2 1.7
2019-Dec-06 11:50 247 0 gusting 2 1.7
2019-Dec-06 11:40 292 0 gusting 2 1.7
2019-Dec-06 11:30 292 1 gusting 2 1.1
2019-Dec-06 11:20 270 1 gusting 2 1.1
2019-Dec-06 11:10 247 0 gusting 3 1.7
2019-Dec-06 11:00 270 1 gusting 2 1.1
2019-Dec-06 10:50 270 1 gusting 2 1.1
2019-Dec-06 10:40 270 1 gusting 3 1.1
2019-Dec-06 10:30 270 1 gusting 3 1.1
2019-Dec-06 10:20 270 1 gusting 3 0.6
2019-Dec-06 10:10 270 1 gusting 3 1.1
2019-Dec-06 10:00 270 1 gusting 2 1.1
2019-Dec-06 09:50 270 1 gusting 3 1.1
2019-Dec-06 09:40 270 1 gusting 3 1.1
2019-Dec-06 09:30 270 1 gusting 3 1.1
2019-Dec-06 09:20 270 1 gusting 3 1.1
2019-Dec-06 09:10 270 1 gusting 2 1.1
2019-Dec-06 09:00 270 1 gusting 3 1.1
2019-Dec-06 08:50 247 1 gusting 3 1.1
2019-Dec-06 08:40 270 1 gusting 2 1.1
2019-Dec-06 08:30 270 1 gusting 3 1.1
2019-Dec-06 08:20 270 1 gusting 2 1.1
2019-Dec-06 08:10 270 1 gusting 3 1.1
2019-Dec-06 08:00 270 1 gusting 2 1.1
2019-Dec-06 07:50 270 0 gusting 2 1.1
2019-Dec-06 07:40 270 0 gusting 2 1.1
2019-Dec-06 07:30 270 0 gusting 2 1.7
2019-Dec-06 07:20 270 0 gusting 2 1.7
2019-Dec-06 07:10 270 1 gusting 2 1.7
2019-Dec-06 07:00 270 0 gusting 1 1.7
2019-Dec-06 06:50 270 0 gusting 1 1.7
2019-Dec-06 06:40 270 0 gusting 1 1.7
2019-Dec-06 06:30 270 0 gusting 1 1.7
2019-Dec-06 06:20 247 1 gusting 2 1.7
2019-Dec-06 06:10 270 0 gusting 2 1.7
2019-Dec-06 06:00 270 2 gusting 3 2.2
2019-Dec-06 05:50 270 1 gusting 2 2.2
2019-Dec-06 05:40 270 0 gusting 1 2.2
2019-Dec-06 05:30 270 1 gusting 2 1.7
2019-Dec-06 05:20 270 2 gusting 2 1.7
2019-Dec-06 05:10 270 2 gusting 2 2.2
2019-Dec-06 05:00 270 0 gusting 2 2.2
2019-Dec-06 04:50 270 1 gusting 2 2.2
2019-Dec-06 04:40 270 1 gusting 2 2.2
2019-Dec-06 04:30 270 0 gusting 1 2.2
2019-Dec-06 04:20 270 1 gusting 2 1.7
2019-Dec-06 04:10 270 1 gusting 2 1.7
2019-Dec-06 04:00 270 0 gusting 2 2.2
2019-Dec-06 03:50 270 0 gusting 2 2.2
2019-Dec-06 03:40 270 0 gusting 2 2.2
2019-Dec-06 03:30 270 2 gusting 3 2.8
2019-Dec-06 03:20 270 0 gusting 2 2.8
2019-Dec-06 03:10 2.8
2019-Dec-06 03:00 2.2
2019-Dec-06 02:50 270 1 gusting 2 2.2
2019-Dec-06 02:40 247 1 gusting 2 2.8
2019-Dec-06 02:30 225 0 gusting 1 2.8
2019-Dec-06 02:20 2.8
2019-Dec-06 02:10 225 0 gusting 2 2.8
2019-Dec-06 02:00 247 1 gusting 2 2.8
2019-Dec-06 01:50 225 0 gusting 1 3.3
2019-Dec-06 01:40 3.3
2019-Dec-06 01:30 3.3
2019-Dec-06 01:20 225 0 gusting 1 2.8
2019-Dec-06 01:10 225 0 gusting 1 2.8
2019-Dec-06 01:00 225 1 gusting 2 3.9
2019-Dec-06 00:50 3.9
2019-Dec-06 00:40 3.9
2019-Dec-06 00:30 3.9
2019-Dec-06 00:20 3.9
2019-Dec-06 00:10 3.9
2019-Dec-06 00:00 225 0 gusting 2 3.9
2019-Dec-05 23:50 202 0 gusting 2 4.4
2019-Dec-05 23:40 202 0 gusting 1 4.4
2019-Dec-05 23:30 5.0
2019-Dec-05 23:20 202 0 gusting 0 5.0
2019-Dec-05 23:10 5.6
2019-Dec-05 23:00 5.6
2019-Dec-05 22:50 202 0 gusting 1 5.6
2019-Dec-05 22:40 6.1
2019-Dec-05 22:30 6.1
2019-Dec-05 22:20 6.7
2019-Dec-05 22:10 6.7
2019-Dec-05 22:00 6.7
2019-Dec-05 21:50 292 0 gusting 1 6.7
2019-Dec-05 21:40 292 0 gusting 1 6.7
2019-Dec-05 21:30 247 0 gusting 2 7.2
2019-Dec-05 21:20 270 0 gusting 2 7.2
2019-Dec-05 21:10 270 0 gusting 2 7.8
2019-Dec-05 21:00 270 0 gusting 3 7.8
2019-Dec-05 20:50 270 1 gusting 3 7.8
2019-Dec-05 20:40 292 1 gusting 4 7.8
2019-Dec-05 20:30 270 1 gusting 4 7.8
2019-Dec-05 20:20 292 2 gusting 4 7.8
2019-Dec-05 20:10 270 2 gusting 6 7.8
2019-Dec-05 20:00 292 1 gusting 7 8.3
2019-Dec-05 19:50 292 1 gusting 3 8.3
2019-Dec-05 19:40 292 1 gusting 6 8.3
2019-Dec-05 19:30 292 0 gusting 2 8.3
2019-Dec-05 19:20 270 1 gusting 3 8.3
2019-Dec-05 19:10 292 1 gusting 6 8.3
2019-Dec-05 19:00 270 1 gusting 4 8.3
2019-Dec-05 18:50 292 2 gusting 6 8.3
2019-Dec-05 18:40 8.3
2019-Dec-05 18:30 270 1 gusting 6 8.3
2019-Dec-05 18:20 315 2 gusting 6 8.3
2019-Dec-05 18:10 315 1 gusting 5 8.3
2019-Dec-05 18:00 292 2 gusting 12 8.3
2019-Dec-05 17:50 315 2 gusting 5 7.8
2019-Dec-05 17:40 270 2 gusting 6 7.8
2019-Dec-05 17:30 270 1 gusting 7 7.8
2019-Dec-05 17:20 315 1 gusting 4 7.8
2019-Dec-05 17:10 270 2 gusting 4 7.2
2019-Dec-05 17:00 292 0 gusting 3 7.2
2019-Dec-05 16:50 315 1 gusting 4 7.2
2019-Dec-05 16:40 022 0 gusting 2 7.2
2019-Dec-05 16:30 315 1 gusting 7 6.7
2019-Dec-05 16:20 315 1 gusting 5 6.7
2019-Dec-05 16:10 6.7
2019-Dec-05 16:00 292 1 gusting 3 6.7
2019-Dec-05 15:50 292 2 gusting 6 6.7
2019-Dec-05 15:40 337 1 gusting 5 6.1
2019-Dec-05 15:30 315 1 gusting 5 6.7
2019-Dec-05 15:20 270 0 gusting 3 6.7
2019-Dec-05 15:10 292 3 gusting 6 6.7
2019-Dec-05 15:00 315 2 gusting 8 6.7
2019-Dec-05 14:50 315 2 gusting 8 6.1
2019-Dec-05 14:40 337 1 gusting 3 6.1
2019-Dec-05 14:30 292 0 gusting 3 6.1
2019-Dec-05 14:20 292 0 gusting 2 5.6
2019-Dec-05 14:10 292 0 gusting 2 5.6
2019-Dec-05 14:00 270 0 gusting 1 5.0